Regional Weather Roundup
Issued by NWS

Home | Current Version | Previous Version | Text Only | Print | Product List | Glossary Off
Versions: 1 2 3 4 5 6 7 8 9 10 11 12 13 14 15 16 17 18 19 20 21 22 23 24 25 26 27

000
ASUS45 KBOU 020407
RWRCO

WEATHER ROUNDUP FOR COLORADO
NATIONAL WEATHER SERVICE DENVER/BOULDER CO
1000 PM MDT SUN MAY 01 2016

NOTE: "FAIR" INDICATES FEW OR NO CLOUDS BELOW 12000 FEET WITH NO
SIGNIFICANT WEATHER AND/OR OBSTRUCTIONS TO VISIBILITY.

COZ001>005-013-030-031-020500-
...NORTHWEST COLORADO...

CITY           SKY/WX    TMP DP  RH WIND       PRES   REMARKS
CRAIG          MOCLDY    45  26  47 E13       30.12R
HAYDEN         FAIR      41  23  48 E12       30.14R
MEEKER         CLOUDY    47  28  47 SW10      30.13R
MOUNT WERNER   NOT AVBL
STEAMBOAT SPGS FAIR      39  22  49 CALM      30.15R
WALDEN         FAIR      30  21  69 NE8       30.23R WCI  23
$$

COZ006>008-011-020500-
...WEST CENTRAL VALLEYS...

CITY           SKY/WX    TMP DP  RH WIND       PRES   REMARKS
GRAND JUNCTION CLOUDY    50  37  61 SE17      30.12R
MONTROSE       CLOUDY    45  38  76 W5        30.19R
EAGLE          CLOUDY    46  25  42 CALM      30.17R
RIFLE          LGT RAIN  45  39  79 S9        30.15R
DELTA          NOT AVBL
NUCLA          NOT AVBL
$$

COZ017>023-064>068-020500-
...SOUTHWEST COLORADO...

CITY           SKY/WX    TMP DP  RH WIND       PRES   REMARKS
DURANGO        LGT RAIN  38  36  92 E3        30.21R
CORTEZ         CLOUDY    43  37  79 CALM      30.18R
PAGOSA SPRINGS FLURRIES  35  35 100 CALM      30.23R
TELLURIDE      CLOUDY    33  33  99 CALM      30.22R
WOLF CREEK PAS LGT SNOW  21  21 100 SW3       30.29R VSB 1
$$

COZ009-010-012-014-032>034-037-058>063-020500-
...CENTRAL COLORADO...

CITY           SKY/WX    TMP DP  RH WIND       PRES   REMARKS
ASPEN          CLOUDY    39  22  50 SE9       30.16R
BUENA VISTA    LGT SNOW  31  29  93 SE5       30.28R WCI  26
COPPER MTN     NOT AVBL
BERTHOUD PASS  CLOUDY    12   3  67 SE9       30.25R WCI   0
COTTONWOOD PAS CLOUDY    28  27  93 CALM      30.27R FOG
GUNNISON       CLOUDY    34  28  80 E5        30.24R WCI  30
KREMMLING      FAIR      34  21  60 CALM      30.22R
LEADVILLE      LGT SNOW  22  22 100 S8        30.24R FOG     WCI  12
MONARCH PASS   CLOUDY    18  14  86 MISG      30.36R
SALIDA         CLOUDY    32  31  94 E6        30.35R WCI  27
SUNLIGHT       CLOUDY    32  30  93 CALM      30.26R
WILKERSON PASS CLOUDY   N/A N/A N/A SW3       30.29R
$$

COZ069>075-020500-
...SAN LUIS VALLEY/SANGRE DE CRISTO MOUNTAINS...

CITY           SKY/WX    TMP DP  RH WIND       PRES   REMARKS
ALAMOSA        FAIR      32  25  75 E10       30.23R WCI  24
LA VETA PASS   LGT SNOW  21  19  93 MISG      30.27R VSB 1
SAGUACHE       LGT RAIN  32  30  93 N8        30.24R WCI  25
$$

COZ035-036-038>040-020500-
...NORTHERN COLORADO FRONT RANGE...

CITY           SKY/WX    TMP DP  RH WIND       PRES   REMARKS
DENVER INTL AP MOCLDY    35  28  75 SW6       30.29R WCI  30
DMNS CITY PARK   N/A     38  31  76 S10G16    30.30S
AURORA         FAIR      33  33  98 SW7       30.30R WCI  27
FRONT RANGE AP NOT AVBL
ERIE MUNI ARPT CLOUDY    38  34  83 CALM      30.30R
BOULDER MUN AP CLOUDY    39  34  81 SW3       30.29R
CENTENNIAL     MOCLDY    34  28  79 SW7       30.29R WCI  28
BROOMFIELD     MOCLDY    36  30  80 W5        30.30R
FORT COLLINS   FAIR      39  28  65 CALM      30.30R
LONGMONT       CLOUDY    42  34  73 CALM      30.31S HAZE
$$

COZ041-046-047-076>085-087-088-020500-
...PIKES PEAK/PALMER DIVIDE AND SOUTHERN FOOTHILLS...

CITY           SKY/WX    TMP DP  RH WIND       PRES   REMARKS
COLO. SPRINGS  CLOUDY    35  25  66 NW6       30.30R WCI  30
A. F. ACADEMY  FAIR      28  25  86 NE12      30.28R WCI  18
SCHRIEVER AFB  NOT AVBL
ELLICOTT       NOT AVBL
FALCON         FAIR      29  26  88 W8        30.30R WCI  21
FORT CARSON    CLOUDY    36  29  78 NW5       30.29R
LIMON          FAIR      27  25  92 N6        30.29R WCI  20
MONUMENT HILL  FOG       21  21 100 W7        30.30S VSB 1/2 WCI  13
TRINIDAD       MOCLDY    34  31  88 W6        30.31R WCI  29
$$

COZ042>045-048>051-090-091-020500-
...NORTHEAST COLORADO...

CITY           SKY/WX    TMP DP  RH WIND       PRES   REMARKS
GREELEY ARPT   FAIR      37  30  75 CALM      30.30R
AKRON          FAIR      31  24  75 W3        30.28R
BURLINGTON     FAIR      33  26  75 NW7       30.27R WCI  27
WRAY           NOT AVBL
STERLING       FAIR      34  30  86 W6        30.27R WCI  29
HOLYOKE        NOT AVBL
FORT MORGAN    FAIR      35  27  70 SE3       30.30R
$$

COZ086-089-092>099-020500-
...SOUTHEAST COLORADO...

CITY           SKY/WX    TMP DP  RH WIND       PRES   REMARKS
PUEBLO         CLOUDY    41  32  70 SE5       30.32R
LA JUNTA       CLOUDY    41  32  70 NW8       30.30R
LAMAR          CLOUDY    41  33  73 N3        30.26R
SPRINGFIELD      N/A     38  35  89 NW6       30.27R
$$




USA.gov is the U.S. government's official web portal to all federal, state and local government web resources and services.